SL-14 R/B, 22693

Orbit data source: Space-Track

SL-14 R/B, 22693 is space debris in LEO originally from a launch on Thu, 24 Jun 1993 UTC launched from the Plesetsk Missile And Space Complex (PKMTR). Debris objects in space refer to the collection of defunct objects orbiting the Earth. Examples of debris include non-operational satellites, rocket bodies, and fragments generated from explosions, collisions, or faulty payload assembly.

Loading next visibility...
Identifier
22693, 1993-038G
Orbit
LEO
Country
Flag of CISCIS
Related business
Manufacturer
Yuzhnoe
Mission
Spacecraft
Bus & Motor
S5M, Unknown motor
Mass
1,600 kg wet, 1,600 kg dry
Launch date (UTC)
1993-06-24 (33 years ago)
Launch vehicle
Unknown
Launch site
Plesetsk Missile And Space Complex (PKMTR)
Object type
Payload
Rocket body
Debris
Shape & HBR
Cyl, 1.4 m
Radar Cross Section
7.351 m², Large (>1 m²)

Expand to show TLE details & history
Last TLE update: 13 hours ago

TLE from 13 hours ago
0 SL-14 R/B
1 22693U 93038G   26125.42845300  .00000033  00000-0  13844-3 0  9996
2 22693  82.5898  16.5545 0046843  60.0722 112.9205 12.54834572505654
Epoch: 2026-05-05T10:16Z
TLE epoch observation values (Epoch: 2026-05-05T10:16:58.339Z)
Latitude
6.38798°
Longitude
178.17778°
Altitude
1,460.877 km
Speed
7.126 km/s
True Right ascension
13h 02m 53s
True Declination
6° 21' 12"
Sunlit
Object was in full shadow at epoch
Visualization orbit readout
Latitude
Unknown
Longitude
Unknown
Altitude
Unknown
Speed
Unknown
Apparent Right ascension
Unknown
Apparent Declination
Unknown
Sunlit
N/A
Visualization observer readout
Local Sidereal Time
06:58:49
Azimuth
Unknown
Elevation
Unknown
Doppler factor
Unknown
Orbital elements
Apogee altitude
1,478.299 km
Perigee altitude
1,405.039 km
Semi-major axis
7,819.806 km
Eccentricity
0.00468
Inclination
82.5898°
RAAN
16.5545°
Arg. of periapsis
60.0722°
True anomaly
113.41377°
Mean anomaly
112.9205°
Eccentric anomaly
113.16725°
Mean motion
3.1387 °/min
Orbital period
114.7 mins
BSTAR
0.00013844
Loading maneuver chart data...
Computing Atmospheric mass density...
Loading historical data...
Loading historical data...
Loading historical data...
Loading historical data...
Loading historical data...
Loading historical data...
Loading historical data...

Documentation

Showing up to 5 results
|